GFSGL_925_spd_273.txt.gz
Wind_Speed
5 5 4 6 6 5 6 7 7 6 6 6 6 4 1 1 4 6 6 8 7 6 5 6 8 9 7 6 6 5 4 6 9 5 6 7 5 6 6 8 9 12 15
4 3 5 5 5 5 5 6 6 7 6 6 4 3 1 2 5 7 7 7 10 9 9 9 8 5 3 2 4 6 5 4 7 10 9 7 6 6 7 8 10 13 14
2 3 4 5 6 6 6 6 6 5 5 3 2 2 1 4 7 8 8 9 9 8 7 6 7 7 7 5 5 5 5 4 4 10 9 7 6 7 7 9 9 11 13
6 7 7 7 7 7 6 7 7 6 5 4 3 2 2 4 6 9 10 9 10 10 9 8 7 5 4 4 5 5 7 7 10 15 13 11 8 8 9 9 9 9 12
5 6 6 6 7 7 8 9 10 9 8 7 8 7 7 7 7 8 11 13 12 12 10 9 7 5 4 4 5 6 8 11 14 14 14 10 8 7 7 9 9 12 13
5 4 4 5 6 7 9 12 11 11 11 11 12 11 11 11 10 10 11 12 12 11 11 9 8 7 7 5 5 8 10 12 13 11 9 11 9 9 9 10 10 4 2
4 4 4 7 9 10 10 9 9 11 11 12 11 11 11 11 8 9 9 10 8 8 7 6 7 8 6 7 8 7 8 9 9 9 15 10 10 10 10 11 11 7 6
5 3 3 4 5 8 8 9 8 8 8 9 9 9 10 10 9 8 7 8 8 9 7 7 6 6 7 8 9 9 9 9 10 13 12 12 11 12 10 11 12 14 11
6 5 3 3 3 3 5 5 5 6 5 5 7 7 8 8 8 8 7 7 8 8 7 6 5 6 8 9 9 12 13 12 11 12 13 13 11 11 12 12 13 12 4
11 8 6 6 5 4 1 2 4 4 5 5 4 4 4 5 6 6 5 7 7 8 7 7 8 8 10 9 9 12 13 12 12 14 13 13 11 10 11 11 11 7 7
12 10 8 7 7 7 6 3 2 2 3 3 3 3 3 3 2 4 5 6 7 8 8 8 7 8 7 6 7 9 10 13 13 11 11 11 10 9 9 8 10 11 7
13 13 11 10 9 8 7 7 6 5 4 2 3 2 1 1 2 3 4 4 5 6 8 8 7 7 7 7 8 8 9 13 12 10 10 10 9 9 9 9 9 8 7
15 15 14 13 12 12 12 11 11 10 8 6 5 5 5 6 6 5 3 2 3 5 7 7 7 8 9 8 8 8 12 11 10 11 11 11 10 10 10 11 11 11 10
18 18 16 15 14 14 13 13 13 13 14 13 12 11 9 8 7 7 7 7 7 6 6 7 9 7 5 5 8 10 10 9 9 10 11 12 12 13 12 11 11 10 9
20 20 20 19 18 17 17 17 18 17 17 17 16 13 12 11 11 10 11 11 11 11 11 10 8 8 9 10 11 11 11 11 12 13 14 14 14 15 13 13 11 11 7
24 24 25 24 23 21 20 19 20 19 18 19 18 17 15 14 10 10 12 14 14 13 13 13 12 12 12 12 14 14 15 15 15 15 17 16 17 17 17 16 15 14 10
30 27 27 27 26 25 24 22 19 18 23 23 22 22 21 18 18 18 17 18 18 18 18 20 20 21 21 20 19 19 18 19 16 16 18 20 20 18 18 18 18 16 14
30 31 29 28 28 27 27 26 24 20 21 24 28 27 26 23 21 18 18 18 20 23 25 21 22 26 26 25 25 25 22 21 21 21 21 22 22 22 21 21 20 21 19
28 30 30 29 28 28 27 26 26 25 24 22 22 20 25 25 22 20 20 25 22 21 22 22 23 25 27 27 27 26 25 25 25 23 23 23 24 25 26 25 24 23 21
25 27 26 26 25 25 25 25 24 24 24 25 25 28 24 22 22 25 25 26 25 27 29 29 28 27 28 28 30 30 30 30 30 30 29 28 28 28 29 29 28 28 27
23 23 24 26 25 24 24 24 23 22 22 23 27 27 28 30 30 30 29 31 33 33 33 33 32 31 32 32 30 30 31 32 33 34 33 33 33 32 31 30 30 31 28
22 22 21 23 23 22 23 22 21 23 23 22 22 23 23 27 29 30 31 32 35 35 35 33 33 33 32 32 33 31 32 33 34 35 35 36 35 34 33 32 31 32 31
21 21 20 20 21 19 18 20 21 20 20 20 19 20 20 25 27 28 30 30 32 34 35 35 34 33 33 34 34 35 32 34 32 31 34 35 35 36 36 34 33 31 31
17 19 19 18 17 17 17 16 19 19 19 18 17 18 20 21 23 23 23 25 27 29 30 32 32 32 32 34 35 35 34 32 31 31 30 32 33 34 34 34 34 35 33
16 16 17 16 16 16 15 15 14 14 15 15 16 15 17 19 20 20 19 20 22 24 25 26 27 28 29 31 35 36 35 34 32 31 32 31 33 33 34 34 33 32 32
12 14 13 13 13 12 11 9 10 10 12 13 13 13 13 14 15 16 15 16 18 20 21 20 21 22 23 25 27 31 31 31 32 31 30 31 32 33 32 33 33 32 32

GFSGL_925_spd_276.txt.gz
Wind_Speed
6 7 7 8 8 7 5 4 4 5 7 5 4 3 4 3 5 8 10 11 11 9 8 7 5 5 8 4 4 5 5 8 9 5 6 9 8 7 8 10 11 14 17
7 7 8 8 7 4 4 4 3 2 3 3 1 2 3 4 6 7 9 8 11 9 6 5 4 5 6 4 4 8 9 7 9 11 13 9 10 8 10 11 12 14 15
4 6 8 9 7 7 6 4 3 3 3 2 4 4 5 5 6 7 7 8 9 8 8 7 7 6 7 8 7 7 9 10 8 12 12 11 12 11 12 12 11 13 15
4 6 7 8 10 9 7 7 6 6 6 5 6 7 8 8 9 10 10 10 11 10 11 11 10 8 6 6 6 6 8 8 10 16 12 12 11 14 13 15 14 14 17
4 6 8 8 9 9 9 10 9 9 9 9 9 10 10 11 10 9 10 12 13 14 13 11 10 7 7 6 6 6 6 10 14 15 15 10 11 16 13 11 18 17 17
5 6 6 7 7 9 11 12 12 12 12 12 13 13 12 13 11 11 12 14 14 13 13 11 9 8 7 5 5 6 8 9 12 14 11 15 15 13 15 19 20 11 5
7 7 7 8 9 10 11 12 13 13 13 14 14 14 15 14 12 12 11 12 12 11 10 10 10 10 9 8 8 8 9 10 9 8 17 15 16 15 17 21 16 8 10
5 4 4 5 8 10 9 10 11 11 13 14 13 12 13 13 11 9 9 10 10 10 9 8 8 8 7 8 9 12 12 10 7 10 11 12 11 15 14 14 16 17 15
7 5 4 4 5 7 8 8 9 9 10 11 12 11 10 10 10 9 8 8 9 9 8 6 6 7 8 8 8 11 12 13 12 12 11 12 15 15 12 16 21 22 7
8 6 4 4 4 6 6 7 7 8 9 9 9 7 8 8 7 7 6 6 7 7 6 5 6 6 7 6 7 9 13 13 12 13 13 12 11 15 16 15 17 13 8
9 8 6 5 5 5 5 5 7 8 8 9 8 7 6 6 6 7 7 7 6 8 7 7 6 7 6 7 8 8 8 13 14 13 12 11 11 11 13 13 14 11 11
11 11 10 8 7 6 5 5 7 8 10 10 9 9 7 6 5 6 5 5 6 7 8 8 8 9 8 7 7 7 7 12 14 13 11 10 10 10 10 8 10 11 11
14 14 12 11 10 9 8 7 8 8 8 8 9 10 10 9 8 8 9 9 9 9 8 8 7 8 9 9 8 10 12 13 12 12 11 11 10 9 10 10 10 10 8
16 16 15 15 15 14 13 12 12 12 12 11 11 10 9 9 11 11 11 11 10 10 10 11 10 9 9 7 10 12 15 15 15 13 12 11 10 11 12 12 11 11 8
18 18 19 18 18 17 16 16 16 16 15 16 15 14 14 15 15 13 13 13 13 11 12 13 14 14 12 12 12 13 13 13 15 17 17 16 15 16 16 15 14 13 10
22 22 23 22 21 20 20 19 19 19 18 18 18 17 16 17 13 14 15 15 15 16 17 19 18 18 18 18 17 17 18 19 18 18 20 20 21 22 23 21 19 18 17
28 27 25 25 24 23 23 23 23 19 19 22 22 21 20 17 16 14 15 16 16 18 18 20 19 19 18 19 20 21 23 22 20 19 21 24 22 21 22 23 23 21 21
28 29 27 26 26 26 25 26 25 24 24 23 21 23 25 23 22 19 18 14 16 21 19 19 21 22 23 22 22 22 21 20 20 21 22 23 24 24 24 25 25 26 25
25 27 27 26 26 26 26 25 25 27 28 28 25 21 20 21 24 22 20 25 22 22 24 24 27 27 26 26 26 26 25 25 25 25 26 25 25 28 30 30 29 29 27
20 22 22 23 24 25 26 26 27 28 29 29 28 30 24 19 22 25 27 28 26 30 31 31 30 29 29 27 27 27 28 29 29 29 31 29 28 29 31 31 31 31 32
17 18 20 22 23 25 26 27 27 26 26 27 30 27 26 26 29 30 31 31 32 30 32 34 35 34 31 29 28 27 28 30 31 32 32 33 32 32 32 32 32 32 32
14 15 16 19 21 22 25 25 25 25 25 26 26 23 21 24 26 28 30 32 34 35 34 33 34 34 34 32 30 29 31 32 32 31 32 32 33 33 34 34 33 33 31
13 14 15 17 18 19 20 22 22 22 23 24 22 20 19 23 26 26 27 27 28 28 29 30 32 33 33 33 32 31 32 33 32 31 31 29 30 31 31 32 33 31 31
7 9 12 14 15 18 19 19 19 20 21 20 19 18 18 19 20 21 21 20 21 23 25 26 27 29 27 30 31 32 33 32 31 30 29 30 30 30 30 31 32 32 30
6 8 11 13 12 15 17 17 16 16 16 16 16 16 15 13 14 16 16 16 17 17 17 18 21 23 24 25 27 27 29 28 29 29 30 32 32 31 30 31 30 28 29
5 5 7 8 10 11 12 12 12 12 12 12 11 11 10 10 10 10 11 12 14 14 14 14 15 15 17 19 22 23 24 28 29 28 29 31 32 31 30 32 31 30 29

GFSGL_925_spd_279.txt.gz
Wind_Speed
6 6 6 7 7 7 7 6 5 5 5 3 4 6 5 7 8 10 11 13 10 11 9 8 7 7 12 6 6 7 10 11 9 4 9 13 11 10 11 10 11 14 16
5 5 7 8 8 8 7 7 6 6 4 2 3 4 7 9 11 14 15 15 14 15 12 10 9 7 8 6 7 9 12 11 9 11 14 10 11 11 12 11 12 13 15
4 5 7 8 9 9 8 6 6 7 5 4 3 6 7 9 13 16 15 15 15 13 11 10 9 9 8 8 9 10 10 10 11 16 14 13 15 13 14 12 12 13 15
3 4 7 8 9 8 8 7 8 6 5 6 7 8 9 10 11 12 12 14 14 12 12 11 11 10 10 10 9 9 10 11 12 19 17 19 19 17 15 17 16 15 16
2 4 6 7 8 8 9 9 8 8 8 8 8 9 10 12 12 13 13 13 12 14 13 12 10 8 7 7 7 10 11 13 17 17 19 17 19 23 21 16 20 17 16
1 2 3 5 7 9 10 11 10 10 10 11 12 12 13 14 11 11 13 15 15 15 15 12 10 8 8 8 8 9 8 12 17 16 13 18 21 24 20 25 24 21 5
3 1 3 4 5 8 9 11 12 13 13 15 15 15 17 16 14 13 13 13 13 12 11 10 10 9 8 8 8 9 11 10 10 10 16 19 25 27 26 27 23 9 8
5 3 3 2 4 5 6 8 10 11 12 13 14 14 15 15 12 10 10 10 11 11 10 9 8 8 8 7 8 9 10 10 9 9 12 14 13 21 24 25 21 13 21
10 7 5 5 3 3 3 4 6 7 9 10 11 11 11 11 11 10 9 10 10 9 8 7 6 6 8 8 8 10 11 11 11 12 12 14 17 18 22 21 21 26 8
11 9 7 6 6 4 3 3 2 4 6 7 8 9 9 9 11 10 9 8 9 8 7 6 6 5 7 8 9 11 13 14 13 13 14 16 17 17 17 18 22 26 8
10 9 7 7 6 6 5 3 3 4 4 5 5 6 6 6 6 7 10 10 9 10 8 8 7 7 8 8 9 9 8 15 16 15 15 15 15 16 17 17 21 19 13
13 12 10 8 7 7 7 7 6 5 4 5 6 7 7 7 6 7 7 8 9 9 10 8 9 10 8 9 11 10 10 14 15 15 14 14 14 15 17 17 19 18 16
15 16 15 12 12 10 9 9 9 9 9 8 8 9 8 8 8 8 8 8 8 9 9 9 10 11 11 11 11 11 12 16 16 15 15 14 13 13 14 14 14 15 13
16 16 16 16 15 14 12 11 11 11 12 12 13 14 12 12 11 11 11 10 11 11 11 11 11 11 10 10 12 12 13 15 16 16 16 14 15 15 15 15 15 13 12
18 17 18 17 17 16 16 15 15 14 14 15 15 13 14 15 13 12 12 12 11 10 12 14 15 14 13 13 12 13 15 16 16 15 16 18 18 16 17 17 14 14 11
21 21 21 20 20 19 18 18 19 18 17 18 17 17 15 15 13 10 12 14 12 13 16 18 19 18 15 13 15 14 14 16 16 16 18 19 20 20 20 21 19 18 17
24 23 22 22 22 22 22 22 23 18 19 21 22 21 20 18 17 15 14 14 14 15 18 20 23 23 23 21 20 18 20 21 21 20 18 21 21 20 22 25 24 23 23
24 24 23 23 22 23 23 24 23 23 23 24 23 23 23 23 22 20 18 16 18 20 24 24 26 27 27 26 24 24 23 22 22 22 23 23 23 25 25 27 28 29 28
23 23 24 23 23 23 22 23 23 24 26 27 25 22 21 21 22 23 21 27 27 26 27 26 23 27 29 27 28 27 26 26 24 22 21 22 24 25 30 30 30 30 30
18 18 17 18 20 22 22 22 23 25 27 26 25 26 22 20 23 25 27 31 31 30 29 30 29 28 25 24 25 25 26 27 27 28 29 27 27 25 28 29 30 30 31
14 13 14 15 17 19 20 23 23 24 25 25 26 22 20 22 28 30 30 29 33 32 33 31 31 32 31 29 27 26 27 27 28 29 30 30 31 32 30 30 30 30 29
13 11 13 14 14 17 19 21 20 21 23 24 25 22 18 19 23 26 28 29 30 31 31 30 30 29 28 27 26 26 27 28 28 28 29 30 29 31 31 31 32 32 31
10 10 11 12 13 13 14 16 17 18 19 21 21 21 18 18 22 24 25 25 25 25 25 25 25 27 26 26 26 26 27 27 27 26 27 27 27 29 30 30 30 29 29
3 6 10 10 9 11 12 13 14 14 15 16 17 17 17 16 17 20 20 19 19 20 21 21 21 21 23 21 22 23 24 25 24 24 24 25 26 26 27 29 29 30 28
2 2 5 6 8 9 10 10 10 11 11 12 11 11 12 12 12 13 13 13 14 14 16 16 16 17 18 19 22 22 21 22 22 21 21 23 26 26 27 28 29 29 29
4 3 3 3 4 4 6 7 7 7 6 6 7 8 7 8 8 9 9 10 11 12 13 13 13 14 14 15 16 16 17 19 20 21 23 25 26 26 27 28 29 28 27

GFSGL_925_spd_285.txt.gz
Wind_Speed
8 9 10 9 9 7 7 8 8 7 6 6 6 5 6 9 9 12 12 14 14 18 15 13 12 11 8 8 8 8 7 9 9 4 8 12 11 9 10 10 10 10 12
7 8 8 9 8 8 8 5 5 5 6 5 6 6 7 8 9 11 11 9 17 17 15 12 13 10 5 6 6 5 7 9 7 10 15 14 12 12 11 10 10 11 11
6 8 10 9 8 7 7 8 6 5 6 5 5 7 7 8 10 11 10 9 16 15 13 11 9 7 6 6 6 7 9 8 10 14 13 13 15 15 14 12 11 10 9
8 8 10 11 10 8 7 5 5 5 5 6 7 9 10 11 13 12 12 14 17 15 13 11 8 6 7 6 7 8 9 9 9 17 13 15 14 16 13 15 13 13 11
10 7 8 9 10 9 8 8 6 6 6 6 8 12 13 14 15 15 15 16 17 14 12 10 8 8 9 9 8 9 10 10 13 16 16 13 14 19 20 16 16 13 11
10 9 7 9 10 11 10 9 8 7 8 9 12 13 14 14 11 11 12 13 12 12 13 11 10 8 7 7 7 9 9 11 16 16 15 18 22 23 22 21 22 17 6
10 10 8 7 10 11 11 11 11 10 9 13 14 14 15 13 10 8 8 11 11 11 10 9 8 7 6 5 7 8 9 10 11 13 18 19 22 28 29 27 24 18 8
10 10 11 9 8 9 10 12 12 11 11 13 14 14 13 13 11 10 9 10 10 9 7 5 4 4 4 4 5 6 6 8 9 12 13 14 17 22 28 29 28 20 8
11 10 9 9 10 9 10 10 10 10 10 11 11 11 11 10 8 8 6 5 5 5 5 4 3 2 3 3 4 5 6 6 8 12 12 12 15 16 28 26 26 18 7
12 10 9 9 7 8 9 10 10 10 10 8 8 7 7 6 6 3 4 4 2 2 1 1 3 3 4 5 6 6 6 5 5 6 8 11 14 15 26 24 26 26 9
11 10 9 8 8 7 7 7 8 9 8 8 8 7 6 5 4 4 3 2 2 2 2 3 3 4 4 6 6 6 5 5 8 8 9 11 14 19 27 24 22 23 19
14 12 10 9 9 9 8 7 8 8 9 10 10 9 8 7 6 5 4 6 4 3 2 2 4 4 5 5 5 6 7 6 10 11 11 13 16 21 24 24 23 24 22
17 16 14 12 11 10 10 10 9 9 9 9 9 9 9 9 8 7 5 6 6 6 6 6 7 7 7 6 6 7 8 7 11 13 13 14 15 15 18 20 23 24 25
20 19 18 17 16 14 13 12 11 12 12 11 12 11 9 10 9 9 9 9 10 9 10 10 10 11 11 10 10 11 11 11 12 13 13 13 14 15 17 18 17 19 20
21 21 20 20 19 18 17 16 15 13 12 13 13 12 12 13 11 10 11 12 11 10 10 11 13 14 15 14 15 15 14 15 17 17 16 16 16 16 18 19 19 19 19
23 23 23 22 22 21 20 18 18 17 15 15 15 15 13 14 14 13 12 12 12 13 14 14 15 17 18 18 17 16 17 18 20 20 20 20 21 21 20 21 22 22 24
24 23 23 23 23 22 22 21 21 14 15 17 18 18 18 17 16 14 13 12 13 14 18 18 19 19 20 20 20 21 21 19 18 19 22 21 21 23 24 25 25 26 27
24 23 21 21 21 21 21 21 19 19 18 14 13 13 14 15 17 16 15 13 14 17 21 21 24 26 24 24 23 24 24 21 19 20 19 19 21 21 25 28 29 31 29
24 24 22 21 20 18 18 18 18 17 17 17 15 14 12 13 14 15 15 18 19 19 21 21 22 25 24 22 23 25 26 26 26 23 23 23 22 20 22 24 26 29 29
17 17 16 18 18 17 17 16 17 15 15 15 15 14 13 12 13 15 18 20 21 21 23 27 28 29 28 26 24 23 22 23 26 27 27 25 25 24 23 23 25 24 26
10 8 9 10 12 11 12 12 12 13 12 12 13 10 10 13 12 12 14 18 22 22 23 25 25 26 27 26 25 25 24 25 25 25 25 27 27 26 26 26 28 27 26
7 8 8 6 5 4 4 6 7 8 8 9 9 8 6 8 10 13 14 14 15 17 19 19 20 21 21 21 20 21 22 23 23 23 24 24 26 27 28 27 27 26 25
5 6 7 6 4 2 1 3 4 5 6 7 8 8 8 8 8 9 10 11 12 12 12 13 15 16 16 17 18 18 20 21 21 20 21 21 22 23 24 26 25 24 23
6 6 6 6 6 5 5 5 5 5 5 7 8 9 10 9 10 10 9 8 8 9 10 11 12 12 13 15 16 16 18 18 18 18 18 20 22 22 23 25 24 25 25
9 10 12 12 12 11 11 12 11 11 12 13 13 13 13 12 12 12 12 11 10 9 8 7 8 9 9 9 11 12 14 16 18 19 20 20 22 23 23 25 25 24 25
14 14 16 16 16 16 16 17 18 17 18 18 18 18 18 17 17 16 16 16 15 14 14 13 13 11 10 9 9 9 10 11 12 13 15 18 21 23 23 25 24 25 25

GFSGL_925_spd_291.txt.gz
Wind_Speed
4 5 6 6 6 6 8 8 10 11 12 14 14 12 22 25 25 22 19 17 19 18 17 17 17 18 15 14 11 8 8 11 9 4 9 12 13 12 12 11 12 10 9
4 4 6 7 6 6 8 9 11 10 12 15 14 14 21 21 23 20 17 15 17 16 17 16 17 17 17 13 10 9 12 10 8 11 12 15 13 14 13 13 13 12 10
4 5 5 6 6 7 7 9 10 12 13 13 14 15 22 22 20 18 16 15 15 15 16 16 17 15 14 12 9 11 10 8 8 14 12 15 15 17 16 14 12 12 11
2 5 7 7 6 7 9 11 12 12 13 14 14 15 20 20 22 20 17 16 18 17 16 16 13 11 11 12 11 9 9 9 9 18 10 16 16 20 16 14 13 14 13
0 4 8 7 7 8 10 12 13 14 14 16 16 17 18 18 17 17 19 21 20 18 15 13 11 8 7 7 9 11 12 12 14 14 11 10 13 15 16 16 13 13 11
2 3 7 7 8 9 13 14 16 17 17 17 20 24 23 19 11 12 17 18 18 17 16 14 11 10 10 9 8 9 7 7 12 11 10 13 18 21 20 18 15 12 5
5 3 6 8 9 10 11 15 18 19 19 20 21 22 23 21 17 16 16 18 18 17 17 15 14 11 10 10 10 9 7 6 7 7 9 13 15 18 20 22 23 24 9
8 6 5 7 9 10 10 13 15 16 18 19 19 19 20 20 17 18 17 18 18 17 14 13 10 10 8 8 7 6 7 9 10 10 10 9 11 10 17 24 26 25 14
10 8 6 6 8 9 10 11 11 11 13 16 16 16 17 17 14 15 13 14 14 13 12 10 7 6 5 4 5 6 7 6 6 9 13 13 12 14 16 23 24 25 10
13 10 8 6 6 8 8 8 8 9 11 11 12 12 12 12 11 10 8 8 10 10 9 7 5 4 2 4 5 7 8 7 6 6 7 12 14 14 15 21 24 26 12
13 12 10 9 7 6 7 7 8 8 8 7 7 8 8 7 6 7 5 5 4 3 3 1 1 1 2 3 4 5 6 6 6 6 7 9 12 15 18 22 24 26 25
15 13 11 9 8 7 6 6 6 5 5 5 4 5 4 3 2 3 4 2 2 2 2 3 3 3 3 4 4 5 6 6 6 6 7 8 11 15 16 20 24 24 24
17 14 13 12 10 8 7 6 5 4 4 4 3 2 2 0 2 3 3 3 2 1 2 3 5 6 5 5 6 7 6 6 6 7 8 8 9 11 13 16 20 22 23
17 16 14 12 11 10 8 7 5 4 3 2 2 1 2 2 2 2 3 3 3 2 4 5 7 7 8 7 8 8 8 8 8 9 9 9 9 10 11 14 17 20 22
17 16 15 13 11 10 8 6 5 4 4 4 3 4 4 3 3 3 4 5 6 7 7 8 8 9 9 9 10 10 10 10 10 10 10 10 11 12 13 14 16 16 17
19 18 17 15 14 12 10 9 8 7 6 6 6 5 5 5 5 5 6 6 7 9 9 10 10 10 11 11 11 11 13 13 12 11 12 13 14 14 15 15 16 19 21
19 17 15 15 14 13 12 11 9 6 4 4 4 5 7 7 8 8 7 5 5 8 9 9 9 10 10 11 12 13 15 14 14 15 15 14 15 16 18 19 19 21 23
18 15 14 14 14 13 12 10 8 6 4 2 2 3 4 6 6 6 6 6 7 9 12 13 14 15 15 15 14 15 15 14 15 16 17 18 18 17 19 21 20 23 25
18 17 14 12 10 9 10 9 8 6 5 3 1 0 2 5 5 4 4 7 8 10 11 13 13 14 15 17 18 18 18 17 17 17 18 19 20 21 22 22 23 24 23
15 14 13 11 10 9 9 8 7 6 3 2 4 5 5 5 5 6 5 4 5 8 10 11 12 12 13 14 15 15 16 16 16 16 17 18 19 20 21 21 20 20 22
10 10 11 10 9 7 6 5 6 7 9 8 8 9 7 7 9 10 10 10 9 9 9 10 11 12 13 14 15 15 14 15 16 17 17 18 18 20 20 22 22 22 23
9 12 13 12 12 13 12 11 11 12 13 13 13 13 11 13 14 14 15 14 13 12 12 11 12 13 14 15 15 15 16 18 18 18 17 17 17 19 20 20 22 22 22
12 15 15 17 18 20 18 16 15 16 18 17 16 16 17 18 18 19 18 17 17 17 17 17 18 18 18 18 18 18 19 19 18 17 20 21 20 20 20 20 21 21 20
16 18 21 20 21 22 22 21 21 20 21 22 21 22 22 22 22 22 21 20 20 20 20 21 22 22 21 22 22 22 21 20 20 20 20 19 20 22 22 22 22 22 23
19 20 21 21 22 23 24 23 24 23 25 24 24 24 23 23 22 22 21 20 20 21 23 24 24 24 25 25 25 25 26 24 26 24 21 20 20 19 19 19 20 22 22
21 21 23 23 24 25 25 26 26 26 27 26 25 25 24 25 24 23 22 23 24 24 24 25 25 26 27 27 27 27 27 27 30 29 27 25 24 22 22 21 20 20 20